Vorticity
16 14 13 13 12 11 1 1 12 36 33 0 27 21 22 13 15 11 9 10 22 15 12 -14 29 -4 -2 4 20 12 5 3 5 5 5 7 7 6 8 10 9 7 7
14 15 14 13 11 13 10 1 3 11 45 32 20 35 13 14 11 9 15 15 20 20 23 22 50 -36 32 32 -5 15 18 5 3 1 4 2 6 6 9 8 8 6 7
14 12 12 15 17 13 12 6 2 4 36 32 21 14 22 14 10 10 6 16 11 20 16 19 -1 -29 6 11 29 4 9 18 4 0 6 2 2 5 7 6 6 12 7
11 12 9 10 15 19 14 12 4 4 5 52 31 34 11 10 16 10 9 11 17 19 13 16 28 21 -9 46 13 13 3 8 15 3 3 3 2 6 2 10 8 5 3
10 11 10 9 12 16 20 14 15 2 5 3 44 30 24 16 14 12 13 6 -2 9 18 10 -0 4 68 -18 28 39 10 -2 18 12 2 5 3 3 4 5 3 6 5
10 11 11 9 10 14 17 18 14 7 4 7 7 40 18 28 41 4 16 -5 -5 1 8 12 -2 -7 48 37 3 17 15 8 -0 20 12 4 5 3 1 3 4 4 1
11 12 11 11 10 12 16 17 17 15 9 6 8 4 42 21 23 56 32 20 3 10 8 9 9 -8 15 42 24 5 10 15 1 7 22 10 6 5 4 1 3 3 -0
14 14 12 11 12 10 16 17 18 17 16 5 9 9 5 18 24 33 12 28 50 16 9 13 -6 11 18 -10 24 54 11 6 16 5 14 21 8 6 9 4 7 8 10
15 13 13 12 13 14 11 15 16 16 16 14 9 7 8 7 5 27 34 9 17 29 28 6 13 8 30 18 23 41 25 32 11 16 -13 20 15 4 5 7 7 4 6
11 10 11 14 15 16 14 11 13 14 15 12 13 11 12 7 5 12 21 23 14 11 36 21 -2 3 3 40 14 14 -7 18 -9 1 16 -22 23 13 4 5 10 7 2
10 10 11 11 12 16 18 16 13 14 14 14 12 13 12 7 9 13 9 13 17 20 21 28 18 9 5 10 29 60 -21 42 54 -17 2 20 -5 42 5 4 4 7 5
9 10 10 10 11 12 15 17 19 17 16 14 16 11 14 13 10 7 9 15 10 13 18 23 23 19 14 -4 0 7 0 48 5 15 11 30 26 3 46 9 3 7 6
12 11 10 9 8 8 10 13 16 19 19 17 13 16 15 13 13 11 9 9 13 11 12 16 20 24 17 18 31 18 17 13 0 55 7 22 39 44 -4 45 22 15 12
13 12 11 10 10 8 10 10 11 12 14 17 16 15 17 15 14 16 14 11 11 11 14 11 13 17 28 13 15 17 15 7 11 22 8 42 5 -2 31 18 20 14 21
11 12 12 11 11 9 10 9 8 8 6 7 9 13 14 15 22 18 15 15 17 17 13 14 13 9 13 11 19 23 15 12 16 18 14 29 17 32 -4 26 31 4 9
11 12 12 11 10 12 9 12 10 8 8 8 7 8 10 13 14 11 14 14 14 17 17 16 12 13 12 10 11 18 23 13 20 11 13 12 14 19 23 34 21 -6 47
10 10 12 12 10 10 12 10 13 10 11 10 8 9 10 10 13 15 14 15 10 15 16 18 17 15 13 13 12 12 13 12 16 22 18 14 8 6 16 23 20 27 2
11 10 10 12 12 10 9 11 9 13 13 12 9 8 10 12 12 13 13 11 14 16 16 18 16 15 15 13 13 13 14 12 12 13 15 18 21 20 19 15 18 17 18
12 10 10 11 12 11 9 7 11 9 11 14 13 9 10 11 13 14 16 14 15 14 15 16 16 17 17 15 12 13 12 14 13 13 12 13 13 13 16 22 21 11 9
13 12 10 10 11 12 9 10 7 11 10 9 15 14 10 11 12 14 14 15 14 14 14 12 15 16 17 18 16 13 12 12 12 14 13 13 14 12 11 12 16 18 17
13 13 11 11 11 11 12 9 9 7 10 12 10 11 11 11 11 13 12 13 13 14 13 13 12 10 11 14 18 17 16 15 14 12 11 11 13 13 13 13 12 12 14
12 14 13 11 10 10 12 13 8 8 7 6 10 10 11 11 12 12 12 10 10 13 15 14 14 13 10 9 11 13 15 15 17 16 17 17 15 14 12 11 12 14 14
11 13 13 12 11 9 10 12 13 7 7 8 7 7 9 9 12 11 12 12 9 9 13 15 15 15 15 11 9 9 9 11 14 18 16 13 15 16 19 18 15 13 14
11 12 13 13 13 11 9 9 11 14 10 5 7 8 7 7 7 10 11 9 11 10 8 10 14 15 16 16 14 13 11 10 8 9 15 18 17 13 14 16 15 15 15
12 13 14 12 13 12 12 11 9 10 12 15 12 6 5 7 7 8 7 12 9 8 10 11 8 10 12 15 15 13 13 13 14 10 9 12 19 18 17 17 18 17 15
14 15 13 12 13 14 13 13 12 10 10 11 11 14 15 12 7 6 7 8 7 13 11 7 9 10 8 10 13 14 11 12 15 14 12 9 7 11 16 18 17 21 18
Height
3033 3026 3018 3012 3005 2999 2993 2987 2980 2972 2969 2967 2967 2971 2975 2980 2987 2994 3002 3006 3009 3019 3030 3038 3044 3054 3064 3073 3080 3087 3098 3107 3115 3126 3131 3138 3144 3149 3154 3159 3162 3165 3169
3030 3022 3015 3008 3001 2996 2991 2986 2980 2970 2965 2962 2960 2962 2965 2969 2973 2979 2985 2989 2995 3002 3012 3021 3033 3039 3048 3055 3065 3073 3084 3094 3104 3113 3120 3127 3134 3139 3145 3150 3153 3157 3160
3028 3020 3013 3005 2998 2992 2986 2981 2977 2970 2963 2959 2956 2957 2958 2960 2964 2969 2974 2982 2986 2989 2998 3012 3026 3028 3033 3042 3050 3060 3070 3081 3091 3099 3104 3114 3122 3127 3133 3137 3142 3146 3150
3026 3018 3011 3003 2995 2989 2984 2978 2973 2966 2962 2956 2953 2951 2953 2954 2956 2961 2965 2972 2976 2980 2987 2994 3004 3017 3022 3031 3037 3048 3059 3067 3076 3084 3091 3100 3108 3115 3121 3125 3129 3134 3141
3023 3016 3009 3001 2994 2987 2980 2975 2971 2965 2959 2955 2951 2947 2946 2947 2948 2951 2956 2961 2965 2972 2977 2979 2987 3002 3008 3017 3026 3033 3043 3052 3061 3068 3077 3083 3091 3099 3106 3115 3121 3127 3129
3020 3013 3006 2999 2992 2985 2978 2972 2967 2964 2960 2954 2950 2944 2944 2942 2941 2943 2946 2947 2952 2958 2964 2969 2979 2989 2998 3002 3009 3018 3027 3037 3046 3053 3063 3068 3077 3089 3097 3103 3110 3112 3116
3017 3010 3003 2997 2990 2982 2977 2970 2964 2961 2958 2953 2949 2946 2941 2937 2934 2931 2936 2935 2940 2949 2957 2964 2970 2975 2985 2990 2995 3003 3012 3022 3034 3043 3048 3056 3066 3076 3087 3091 3096 3101 3106
3014 3007 3001 2994 2988 2980 2975 2969 2963 2958 2955 2952 2946 2944 2940 2935 2928 2931 2930 2930 2927 2932 2946 2954 2961 2967 2976 2979 2981 2985 2996 3008 3019 3027 3033 3045 3054 3066 3071 3080 3086 3091 3095
3013 3005 2996 2990 2985 2980 2972 2967 2962 2957 2953 2949 2946 2942 2941 2937 2931 2930 2926 2926 2923 2926 2933 2946 2952 2960 2965 2968 2972 2977 2982 2993 3001 3008 3019 3028 3037 3048 3056 3063 3062 3070 3073
3012 3004 2996 2989 2982 2978 2972 2966 2960 2956 2953 2947 2944 2941 2939 2938 2930 2926 2922 2920 2922 2920 2925 2934 2945 2950 2951 2954 2963 2970 2972 2978 2987 2993 3005 3015 3025 3031 3040 3044 3050 3052 3060
3011 3004 2998 2990 2983 2976 2971 2967 2961 2956 2952 2948 2943 2939 2936 2935 2932 2932 2930 2927 2924 2920 2920 2929 2937 2941 2942 2949 2953 2957 2961 2969 2976 2982 2989 2999 3010 3015 3024 3029 3034 3038 3043
3012 3005 2998 2992 2985 2978 2972 2966 2962 2957 2953 2949 2944 2938 2936 2935 2934 2933 2931 2931 2929 2928 2927 2927 2929 2933 2935 2942 2947 2951 2955 2957 2963 2969 2974 2980 2991 2999 3005 3012 3018 3023 3029
3013 3006 3000 2993 2986 2980 2974 2968 2962 2957 2953 2949 2945 2942 2939 2936 2933 2932 2928 2929 2929 2930 2928 2924 2924 2926 2930 2934 2939 2944 2946 2948 2954 2958 2962 2968 2974 2983 2988 2994 3002 3009 3015
3012 3006 3000 2994 2988 2981 2975 2969 2963 2957 2951 2948 2944 2939 2935 2932 2931 2933 2928 2928 2927 2925 2925 2925 2924 2923 2925 2929 2932 2932 2934 2940 2944 2948 2953 2955 2961 2967 2972 2978 2986 2993 3000
3010 3005 3000 2994 2988 2982 2975 2968 2963 2957 2952 2947 2944 2940 2938 2936 2933 2931 2926 2929 2927 2926 2925 2924 2922 2921 2923 2926 2926 2924 2926 2932 2937 2940 2945 2947 2950 2956 2960 2964 2969 2977 2984
3009 3004 2999 2994 2989 2983 2977 2972 2966 2961 2956 2950 2945 2941 2937 2933 2930 2927 2927 2926 2924 2924 2921 2920 2918 2920 2920 2920 2919 2919 2920 2926 2930 2933 2935 2937 2940 2945 2949 2951 2956 2961 2967
3008 3003 2998 2994 2989 2985 2979 2973 2969 2964 2958 2954 2948 2943 2937 2932 2930 2927 2927 2927 2927 2924 2920 2918 2917 2917 2915 2917 2914 2914 2917 2922 2923 2925 2928 2928 2930 2934 2938 2940 2943 2948 2953
3007 3002 2997 2992 2988 2984 2980 2975 2970 2965 2961 2956 2951 2945 2941 2937 2934 2932 2933 2931 2927 2920 2919 2916 2913 2911 2911 2910 2911 2913 2916 2917 2919 2921 2923 2922 2922 2923 2928 2932 2934 2937 2939
3006 3001 2996 2992 2987 2983 2980 2975 2970 2966 2961 2957 2954 2950 2946 2942 2938 2934 2930 2924 2921 2919 2918 2916 2914 2911 2910 2909 2910 2910 2910 2912 2914 2915 2914 2914 2916 2917 2918 2921 2923 2927 2930
3005 3000 2995 2991 2987 2983 2979 2975 2971 2967 2963 2958 2954 2950 2947 2943 2939 2934 2930 2925 2924 2921 2919 2917 2913 2910 2909 2909 2908 2906 2906 2907 2908 2909 2908 2909 2909 2910 2912 2913 2916 2917 2918
3004 2999 2995 2990 2986 2982 2978 2975 2971 2967 2963 2959 2955 2950 2946 2943 2938 2934 2929 2927 2927 2923 2919 2916 2912 2909 2907 2906 2905 2904 2903 2903 2903 2902 2901 2903 2905 2905 2905 2907 2907 2907 2908
3002 2998 2993 2989 2985 2981 2977 2973 2970 2966 2962 2959 2955 2952 2947 2944 2940 2936 2933 2929 2925 2921 2918 2914 2911 2909 2909 2906 2902 2902 2901 2901 2900 2898 2896 2897 2898 2899 2900 2902 2901 2902 2901
2999 2995 2991 2987 2983 2979 2975 2972 2968 2965 2962 2958 2954 2951 2948 2944 2940 2937 2933 2929 2926 2922 2917 2913 2911 2908 2906 2904 2902 2900 2900 2900 2899 2897 2896 2894 2894 2895 2893 2893 2893 2893 2894
2996 2991 2988 2984 2981 2977 2973 2970 2966 2963 2960 2957 2954 2950 2946 2943 2939 2935 2932 2929 2925 2921 2918 2914 2911 2907 2904 2903 2902 2900 2897 2897 2895 2894 2893 2894 2892 2889 2888 2887 2884 2885 2885
2992 2988 2984 2980 2977 2973 2970 2967 2964 2960 2957 2954 2951 2948 2945 2942 2938 2934 2930 2926 2922 2919 2916 2913 2910 2908 2906 2903 2901 2899 2897 2895 2894 2893 2891 2889 2885 2883 2882 2880 2876 2875 2878
2988 2985 2981 2977 2973 2969 2966 2963 2960 2957 2954 2951 2947 2944 2941 2939 2936 2933 2929 2926 2923 2919 2916 2914 2911 2908 2905 2902 2900 2898 2895 2892 2891 2889 2889 2885 2880 2879 2875 2871 2870 2867 2869